Flag for U.S.A. Weather past 2 weeks in Vancouver, Washington, U.S.A.

Now
53 °F

Partly sunny.


Feels Like: 51 °F
Forecast: 55 / 78 °F
Wind: 6 mph from North

Location: Vancouver - Pearson Airpark

Current Time: May 30, 2015 at 8:43:13 AM

Latest Report: May 30, 2015 at 7:53 AM


Visibility: 10 mi

Pressure: 29.99 "Hg

Humidity: 74%

Dew point: 45 °F

Location of VancouverLocation

Historic Weather in Vancouver — Graph

°F

Vancouver temperature yesterday

Maximum temperature yesterday: 81 °F (at 3:53 PM)
Minimum temperature yesterday: 56 °F (at 5:53 AM)
Average temperature yesterday: 68 °F

Past Weeks' High & Low Weather Summary

 TemperatureHumidityPressure
High84 °F (May 28, 4:53 PM)93% (May 28, 7:00 AM)30.19 "Hg (May 28, 7:00 AM)
Low50 °F (May 18, 4:53 AM)26% (May 28, 4:53 PM)29.82 "Hg (May 21, 5:53 PM)
Average61 °F69%30.01 "Hg
* Reported May 15 6:53 AM — May 30 6:53 AM, Vancouver, Weather by CustomWeather, © 2015

Note: Actual official high and low records may vary slightly from our data, if they occured in-between our weather recording intervals... More about our weather records

Advertising

Vancouver weather history for previous 24 hours

 ConditionsComfort  
Time TempWeatherWind HumidityBarometerVisibility
6:53 AM
Sat, May 30
53 °FSunny.8 mph72%29.98 "Hg10 mi
5:53 AM52 °FClear.No wind75%29.96 "Hg10 mi
4:53 AM52 °FClear.3 mph77%29.95 "Hg10 mi
3:53 AM53 °FPassing clouds.5 mph74%29.95 "Hg10 mi
2:53 AM54 °FClear.6 mph74%29.94 "Hg10 mi
1:53 AM56 °FClear.6 mph72%29.94 "Hg10 mi
12:53 AM57 °FClear.5 mph72%29.93 "Hg10 mi
11:53 PM
Fri, May 29
60 °FClear.5 mph67%29.93 "Hg10 mi
10:53 PM62 °FClear.5 mph65%29.93 "Hg10 mi
9:53 PM65 °FPassing clouds.7 mph61%29.92 "Hg10 mi
8:53 PM69 °FPassing clouds.5 mph57%29.89 "Hg10 mi
7:53 PM74 °FSunny.12 mph52%29.87 "Hg10 mi
6:53 PM78 °FSunny.8 mph43%29.87 "Hg10 mi
5:53 PM80 °FSunny.8 mph42%29.87 "Hg10 mi
4:53 PM81 °FSunny.9 mph42%29.88 "Hg10 mi
3:53 PM81 °FSunny.6 mph42%29.89 "Hg10 mi
2:53 PM80 °FSunny.7 mph47%29.90 "Hg10 mi
1:53 PM77 °FSunny.7 mph50%29.93 "Hg10 mi
12:53 PM75 °FSunny.6 mph52%29.94 "Hg10 mi
11:53 AM72 °FSunny.3 mph57%29.96 "Hg10 mi
10:53 AM69 °FSunny.6 mph61%29.98 "Hg10 mi
9:53 AM65 °FSunny.6 mph68%29.99 "Hg10 mi
8:53 AM61 °FSunny.7 mph75%29.99 "Hg10 mi
Weather by CustomWeather, © 2015

See weather overviewHow to use our weather pages